• In Uzbekistan
  • List of Countries
  • For 7 days
  • Water Temperature
  • Satellite Maps
  • Weather Map
  • Weather Widgets
  • user-avatar
    Login

    Hourly Weather Megri

    Today, 26 May, Friday

    Time Temperature Precipitation Wind Pressure Humidity
    00:00 +10°C° 0 mm 2 mps 623 mmHg 64%
    01:00 +11°C° 0 mm 1 mps 622 mmHg 67%
    02:00 +10°C° 0 mm 1 mps 622 mmHg 69%
    03:00 +10°C° 0 mm 1 mps 622 mmHg 75%
    04:00 +11°C° 0 mm 1 mps 622 mmHg 73%
    05:00 +12°C° 0 mm 1 mps 623 mmHg 72%
    06:00 +12°C° 0 mm 1 mps 623 mmHg 70%
    07:00 +14°C° 0 mm 1 mps 624 mmHg 58%
    08:00 +16°C° 0 mm 1 mps 624 mmHg 47%
    09:00 +19°C° 0 mm 1 mps 625 mmHg 35%
    10:00 +20°C° 0 mm 1 mps 625 mmHg 31%
    11:00 +20°C° 0 mm 2 mps 625 mmHg 27%
    12:00 +23°C° 0 mm 2 mps 625 mmHg 22%
    13:00 +23°C° 0 mm 2 mps 625 mmHg 22%
    14:00 +24°C° 0 mm 2 mps 625 mmHg 21%
    15:00 +24°C° 0 mm 2 mps 624 mmHg 20%
    16:00 +23°C° 0 mm 2 mps 624 mmHg 24%
    17:00 +23°C° 0 mm 2 mps 624 mmHg 28%
    18:00 +22°C° 0 mm 1 mps 623 mmHg 32%
    19:00 +20°C° 0 mm 1 mps 623 mmHg 40%
    20:00 +16°C° 0 mm 1 mps 622 mmHg 48%
    21:00 +14°C° 0 mm 2 mps 621 mmHg 56%
    22:00 +13°C° 0 mm 1 mps 621 mmHg 60%
    23:00 +13°C° 0 mm 1 mps 621 mmHg 64%

    Tomorrow, 27 May, Saturday

    Time Temperature Precipitation Wind Pressure Humidity
    00:00 +12°C° 0 mm 1 mps 621 mmHg 68%
    01:00 +12°C° 0 mm 1 mps 621 mmHg 68%
    02:00 +11°C° 0 mm 1 mps 621 mmHg 69%
    03:00 +11°C° 0 mm 1 mps 620 mmHg 70%
    04:00 +12°C° 0.1 mm 1 mps 621 mmHg 66%
    05:00 +13°C° 0.1 mm 1 mps 622 mmHg 63%
    06:00 +15°C° 0.1 mm 1 mps 622 mmHg 59%
    07:00 +18°C° 0 mm 1 mps 623 mmHg 49%
    08:00 +20°C° 0 mm 1 mps 623 mmHg 39%
    09:00 +22°C° 0 mm 1 mps 624 mmHg 29%
    10:00 +23°C° 0 mm 2 mps 624 mmHg 26%
    11:00 +25°C° 0 mm 4 mps 624 mmHg 23%
    12:00 +26°C° 0 mm 5 mps 624 mmHg 21%
    13:00 +27°C° 0 mm 6 mps 624 mmHg 20%
    14:00 +27°C° 0 mm 6 mps 623 mmHg 19%
    15:00 +28°C° 0 mm 7 mps 623 mmHg 18%
    16:00 +27°C° 0 mm 6 mps 623 mmHg 21%
    17:00 +25°C° 0 mm 5 mps 622 mmHg 24%
    18:00 +23°C° 0 mm 4 mps 622 mmHg 27%
    19:00 +21°C° 0 mm 3 mps 621 mmHg 34%
    20:00 +18°C° 0 mm 2 mps 621 mmHg 41%
    21:00 +15°C° 0 mm 1 mps 620 mmHg 47%
    22:00 +15°C° 0 mm 1 mps 620 mmHg 51%
    23:00 +14°C° 0 mm 1 mps 620 mmHg 56%

    Day after tomorrow, 28 May, Sunday

    Time Temperature Precipitation Wind Pressure Humidity
    00:00 +13°C° 0 mm 1 mps 620 mmHg 60%
    01:00 +12°C° 0 mm 1 mps 620 mmHg 60%
    02:00 +12°C° 0 mm 1 mps 620 mmHg 60%
    03:00 +12°C° 0 mm 1 mps 620 mmHg 61%
    04:00 +13°C° 0 mm 1 mps 621 mmHg 56%
    05:00 +14°C° 0 mm 1 mps 622 mmHg 51%
    06:00 +15°C° 0 mm 1 mps 622 mmHg 46%
    07:00 +17°C° 0 mm 2 mps 623 mmHg 40%
    08:00 +19°C° 0 mm 2 mps 624 mmHg 34%
    09:00 +21°C° 0 mm 3 mps 624 mmHg 28%
    10:00 +22°C° 0 mm 3 mps 624 mmHg 25%
    11:00 +23°C° 0 mm 4 mps 624 mmHg 22%
    12:00 +25°C° 0 mm 4 mps 625 mmHg 19%
    13:00 +25°C° 0 mm 4 mps 624 mmHg 18%
    14:00 +26°C° 0 mm 4 mps 624 mmHg 17%
    15:00 +26°C° 0 mm 4 mps 624 mmHg 17%
    16:00 +25°C° 0 mm 3 mps 624 mmHg 19%
    17:00 +24°C° 0 mm 3 mps 624 mmHg 21%
    18:00 +23°C° 0 mm 2 mps 623 mmHg 23%
    19:00 +20°C° 0 mm 2 mps 623 mmHg 26%
    20:00 +18°C° 0 mm 2 mps 623 mmHg 29%
    21:00 +15°C° 0 mm 2 mps 623 mmHg 32%
    22:00 +15°C° 0 mm 2 mps 623 mmHg 33%
    23:00 +14°C° 0 mm 2 mps 623 mmHg 34%

    29 May, Monday

    Time Temperature Precipitation Wind Pressure Humidity
    00:00 +13°C° 0 mm 2 mps 623 mmHg 35%
    01:00 +13°C° 0 mm 1 mps 622 mmHg 37%
    02:00 +12°C° 0 mm 1 mps 622 mmHg 40%
    03:00 +12°C° 0 mm 1 mps 622 mmHg 43%
    04:00 +13°C° 0 mm 1 mps 623 mmHg 42%
    05:00 +14°C° 0 mm 1 mps 624 mmHg 41%
    06:00 +15°C° 0 mm 1 mps 625 mmHg 40%
    07:00 +18°C° 0 mm 1 mps 625 mmHg 36%
    08:00 +19°C° 0 mm 1 mps 626 mmHg 31%
    09:00 +21°C° 0 mm 1 mps 627 mmHg 27%
    10:00 +22°C° 0 mm 1 mps 627 mmHg 25%
    11:00 +23°C° 0 mm 1 mps 627 mmHg 23%
    12:00 +24°C° 0 mm 2 mps 627 mmHg 21%
    13:00 +25°C° 0 mm 2 mps 627 mmHg 22%
    14:00 +25°C° 0 mm 2 mps 627 mmHg 22%
    15:00 +25°C° 0 mm 2 mps 627 mmHg 22%
    16:00 +24°C° 0.1 mm 2 mps 626 mmHg 28%
    17:00 +22°C° 0.1 mm 3 mps 626 mmHg 34%
    18:00 +21°C° 0.1 mm 4 mps 626 mmHg 40%
    19:00 +18°C° 0.2 mm 4 mps 626 mmHg 52%
    20:00 +15°C° 0.2 mm 4 mps 625 mmHg 64%
    21:00 +13°C° 0.2 mm 4 mps 625 mmHg 76%
    22:00 +13°C° 0 mm 3 mps 625 mmHg 77%
    23:00 +12°C° 0 mm 3 mps 625 mmHg 79%

    30 May, Tuesday

    Time Temperature Precipitation Wind Pressure Humidity
    00:00 +12°C° 0 mm 3 mps 624 mmHg 80%
    01:00 +11°C° 0 mm 3 mps 624 mmHg 80%
    02:00 +11°C° 0 mm 3 mps 624 mmHg 81%
    03:00 +10°C° 0 mm 3 mps 624 mmHg 81%
    04:00 +11°C° 0 mm 3 mps 624 mmHg 78%
    05:00 +12°C° 0 mm 2 mps 624 mmHg 75%
    06:00 +13°C° 0 mm 2 mps 624 mmHg 72%
    07:00 +15°C° 0 mm 2 mps 625 mmHg 61%
    08:00 +17°C° 0 mm 2 mps 626 mmHg 50%
    09:00 +21°C° 0 mm 1 mps 626 mmHg 39%
    10:00 +21°C° 0 mm 2 mps 626 mmHg 34%
    11:00 +24°C° 0 mm 2 mps 626 mmHg 29%
    12:00 +25°C° 0 mm 3 mps 626 mmHg 24%
    13:00 +26°C° 0 mm 3 mps 626 mmHg 22%
    14:00 +26°C° 0 mm 3 mps 626 mmHg 21%
    15:00 +27°C° 0 mm 3 mps 626 mmHg 19%
    16:00 +26°C° 0 mm 3 mps 625 mmHg 22%
    17:00 +25°C° 0 mm 2 mps 625 mmHg 25%
    18:00 +24°C° 0 mm 2 mps 625 mmHg 28%
    19:00 +21°C° 0 mm 2 mps 625 mmHg 34%
    20:00 +18°C° 0 mm 2 mps 624 mmHg 40%
    21:00 +16°C° 0 mm 2 mps 624 mmHg 46%
    22:00 +15°C° 0 mm 1 mps 624 mmHg 46%
    23:00 +14°C° 0 mm 1 mps 623 mmHg 46%

    31 May, Wednesday

    Time Temperature Precipitation Wind Pressure Humidity
    00:00 +14°C° 0 mm 1 mps 623 mmHg 45%
    01:00 +13°C° 0 mm 1 mps 623 mmHg 42%
    02:00 +13°C° 0 mm 1 mps 622 mmHg 39%
    03:00 +12°C° 0 mm 1 mps 622 mmHg 36%
    04:00 +14°C° 0 mm 1 mps 622 mmHg 36%
    05:00 +15°C° 0 mm 1 mps 623 mmHg 35%
    06:00 +16°C° 0 mm 1 mps 624 mmHg 35%
    07:00 +19°C° 0 mm 1 mps 624 mmHg 30%
    08:00 +21°C° 0 mm 1 mps 625 mmHg 25%
    09:00 +23°C° 0 mm 1 mps 625 mmHg 20%
    10:00 +25°C° 0 mm 2 mps 625 mmHg 19%
    11:00 +26°C° 0 mm 2 mps 625 mmHg 19%
    12:00 +27°C° 0 mm 3 mps 625 mmHg 18%
    13:00 +27°C° 0 mm 2 mps 625 mmHg 18%
    14:00 +27°C° 0 mm 2 mps 624 mmHg 18%
    15:00 +28°C° 0 mm 2 mps 624 mmHg 18%
    16:00 +27°C° 0 mm 3 mps 624 mmHg 21%
    17:00 +26°C° 0 mm 3 mps 623 mmHg 24%
    18:00 +25°C° 0 mm 3 mps 623 mmHg 28%
    19:00 +21°C° 0 mm 3 mps 622 mmHg 37%
    20:00 +19°C° 0 mm 3 mps 621 mmHg 47%
    21:00 +16°C° 0 mm 2 mps 621 mmHg 56%
    22:00 +16°C° 0 mm 3 mps 620 mmHg 60%
    23:00 +14°C° 0 mm 3 mps 620 mmHg 64%
    Show more